Index of /20260412/WXO-DD/model_gdps/15km/00/009
Name Last modified Size Description
Parent Directory -
20260412T00Z_MSC_GDPS_AbsoluteVorticity_IsbL-0200_LatLon0.15_PT009H.grib2 2026-04-12 04:09 1.2M
20260412T00Z_MSC_GDPS_AbsoluteVorticity_IsbL-0250_LatLon0.15_PT009H.grib2 2026-04-12 04:09 1.3M
20260412T00Z_MSC_GDPS_AbsoluteVorticity_IsbL-0500_LatLon0.15_PT009H.grib2 2026-04-12 04:09 1.2M
20260412T00Z_MSC_GDPS_AbsoluteVorticity_IsbL-0700_LatLon0.15_PT009H.grib2 2026-04-12 04:09 1.3M
20260412T00Z_MSC_GDPS_AbsoluteVorticity_IsbL-0850_LatLon0.15_PT009H.grib2 2026-04-12 04:09 1.6M
20260412T00Z_MSC_GDPS_AirTemp_AGL-120m_LatLon0.15_PT009H.grib2 2026-04-12 04:09 899K
20260412T00Z_MSC_GDPS_AirTemp_AGL-2m_LatLon0.15_PT009H.grib2 2026-04-12 04:09 1.2M
20260412T00Z_MSC_GDPS_AirTemp_AGL-40m_LatLon0.15_PT009H.grib2 2026-04-12 04:09 918K
20260412T00Z_MSC_GDPS_AirTemp_AGL-80m_LatLon0.15_PT009H.grib2 2026-04-12 04:09 907K
20260412T00Z_MSC_GDPS_AirTemp_IsbL-0001_LatLon0.15_PT009H.grib2 2026-04-12 04:09 709K
20260412T00Z_MSC_GDPS_AirTemp_IsbL-0005_LatLon0.15_PT009H.grib2 2026-04-12 04:09 683K
20260412T00Z_MSC_GDPS_AirTemp_IsbL-0010_LatLon0.15_PT009H.grib2 2026-04-12 04:09 761K
20260412T00Z_MSC_GDPS_AirTemp_IsbL-0020_LatLon0.15_PT009H.grib2 2026-04-12 04:09 708K
20260412T00Z_MSC_GDPS_AirTemp_IsbL-0030_LatLon0.15_PT009H.grib2 2026-04-12 04:09 753K
20260412T00Z_MSC_GDPS_AirTemp_IsbL-0050_LatLon0.15_PT009H.grib2 2026-04-12 04:09 816K
20260412T00Z_MSC_GDPS_AirTemp_IsbL-0100_LatLon0.15_PT009H.grib2 2026-04-12 04:09 944K
20260412T00Z_MSC_GDPS_AirTemp_IsbL-0150_LatLon0.15_PT009H.grib2 2026-04-12 04:09 969K
20260412T00Z_MSC_GDPS_AirTemp_IsbL-0175_LatLon0.15_PT009H.grib2 2026-04-12 04:09 959K
20260412T00Z_MSC_GDPS_AirTemp_IsbL-0200_LatLon0.15_PT009H.grib2 2026-04-12 04:09 971K
20260412T00Z_MSC_GDPS_AirTemp_IsbL-0225_LatLon0.15_PT009H.grib2 2026-04-12 04:09 1.0M
20260412T00Z_MSC_GDPS_AirTemp_IsbL-0250_LatLon0.15_PT009H.grib2 2026-04-12 04:09 1.0M
20260412T00Z_MSC_GDPS_AirTemp_IsbL-0275_LatLon0.15_PT009H.grib2 2026-04-12 04:09 1.0M
20260412T00Z_MSC_GDPS_AirTemp_IsbL-0300_LatLon0.15_PT009H.grib2 2026-04-12 04:09 1.0M
20260412T00Z_MSC_GDPS_AirTemp_IsbL-0350_LatLon0.15_PT009H.grib2 2026-04-12 04:09 934K
20260412T00Z_MSC_GDPS_AirTemp_IsbL-0400_LatLon0.15_PT009H.grib2 2026-04-12 04:09 945K
20260412T00Z_MSC_GDPS_AirTemp_IsbL-0450_LatLon0.15_PT009H.grib2 2026-04-12 04:09 966K
20260412T00Z_MSC_GDPS_AirTemp_IsbL-0500_LatLon0.15_PT009H.grib2 2026-04-12 04:09 1.0M
20260412T00Z_MSC_GDPS_AirTemp_IsbL-0550_LatLon0.15_PT009H.grib2 2026-04-12 04:09 803K
20260412T00Z_MSC_GDPS_AirTemp_IsbL-0600_LatLon0.15_PT009H.grib2 2026-04-12 04:09 897K
20260412T00Z_MSC_GDPS_AirTemp_IsbL-0650_LatLon0.15_PT009H.grib2 2026-04-12 04:09 926K
20260412T00Z_MSC_GDPS_AirTemp_IsbL-0700_LatLon0.15_PT009H.grib2 2026-04-12 04:09 955K
20260412T00Z_MSC_GDPS_AirTemp_IsbL-0750_LatLon0.15_PT009H.grib2 2026-04-12 04:09 1.0M
20260412T00Z_MSC_GDPS_AirTemp_IsbL-0800_LatLon0.15_PT009H.grib2 2026-04-12 04:09 1.1M
20260412T00Z_MSC_GDPS_AirTemp_IsbL-0850_LatLon0.15_PT009H.grib2 2026-04-12 04:09 1.1M
20260412T00Z_MSC_GDPS_AirTemp_IsbL-0875_LatLon0.15_PT009H.grib2 2026-04-12 04:09 1.1M
20260412T00Z_MSC_GDPS_AirTemp_IsbL-0900_LatLon0.15_PT009H.grib2 2026-04-12 04:09 1.1M
20260412T00Z_MSC_GDPS_AirTemp_IsbL-0925_LatLon0.15_PT009H.grib2 2026-04-12 04:09 1.1M
20260412T00Z_MSC_GDPS_AirTemp_IsbL-0950_LatLon0.15_PT009H.grib2 2026-04-12 04:09 1.1M
20260412T00Z_MSC_GDPS_AirTemp_IsbL-0970_LatLon0.15_PT009H.grib2 2026-04-12 04:09 1.1M
20260412T00Z_MSC_GDPS_AirTemp_IsbL-0985_LatLon0.15_PT009H.grib2 2026-04-12 04:09 1.1M
20260412T00Z_MSC_GDPS_AirTemp_IsbL-1000_LatLon0.15_PT009H.grib2 2026-04-12 04:09 1.1M
20260412T00Z_MSC_GDPS_AirTemp_IsbL-1015_LatLon0.15_PT009H.grib2 2026-04-12 04:09 1.1M
20260412T00Z_MSC_GDPS_Albedo_Sfc_LatLon0.15_PT009H.grib2 2026-04-12 04:09 247K
20260412T00Z_MSC_GDPS_CAPE_Sfc_LatLon0.15_PT009H.grib2 2026-04-12 04:09 3.8M
20260412T00Z_MSC_GDPS_CIN_Sfc_LatLon0.15_PT009H.grib2 2026-04-12 04:09 3.0M
20260412T00Z_MSC_GDPS_CloudWater_EAtm_LatLon0.15_PT009H.grib2 2026-04-12 04:09 525K
20260412T00Z_MSC_GDPS_ConvectivePrecip-Accum_Sfc_LatLon0.15_PT009H.grib2 2026-04-12 04:09 1.6M
20260412T00Z_MSC_GDPS_DewPointDepression_AGL-2m_LatLon0.15_PT009H.grib2 2026-04-12 04:09 746K
20260412T00Z_MSC_GDPS_DewPointDepression_IsbL-0010_LatLon0.15_PT009H.grib2 2026-04-12 04:09 2.6K
20260412T00Z_MSC_GDPS_DewPointDepression_IsbL-0020_LatLon0.15_PT009H.grib2 2026-04-12 04:09 69K
20260412T00Z_MSC_GDPS_DewPointDepression_IsbL-0030_LatLon0.15_PT009H.grib2 2026-04-12 04:09 62K
20260412T00Z_MSC_GDPS_DewPointDepression_IsbL-0050_LatLon0.15_PT009H.grib2 2026-04-12 04:09 354K
20260412T00Z_MSC_GDPS_DewPointDepression_IsbL-0100_LatLon0.15_PT009H.grib2 2026-04-12 04:09 363K
20260412T00Z_MSC_GDPS_DewPointDepression_IsbL-0150_LatLon0.15_PT009H.grib2 2026-04-12 04:09 439K
20260412T00Z_MSC_GDPS_DewPointDepression_IsbL-0175_LatLon0.15_PT009H.grib2 2026-04-12 04:09 505K
20260412T00Z_MSC_GDPS_DewPointDepression_IsbL-0200_LatLon0.15_PT009H.grib2 2026-04-12 04:09 616K
20260412T00Z_MSC_GDPS_DewPointDepression_IsbL-0225_LatLon0.15_PT009H.grib2 2026-04-12 04:09 752K
20260412T00Z_MSC_GDPS_DewPointDepression_IsbL-0250_LatLon0.15_PT009H.grib2 2026-04-12 04:09 870K
20260412T00Z_MSC_GDPS_DewPointDepression_IsbL-0275_LatLon0.15_PT009H.grib2 2026-04-12 04:09 898K
20260412T00Z_MSC_GDPS_DewPointDepression_IsbL-0300_LatLon0.15_PT009H.grib2 2026-04-12 04:09 942K
20260412T00Z_MSC_GDPS_DewPointDepression_IsbL-0350_LatLon0.15_PT009H.grib2 2026-04-12 04:09 957K
20260412T00Z_MSC_GDPS_DewPointDepression_IsbL-0400_LatLon0.15_PT009H.grib2 2026-04-12 04:09 1.0M
20260412T00Z_MSC_GDPS_DewPointDepression_IsbL-0450_LatLon0.15_PT009H.grib2 2026-04-12 04:09 1.0M
20260412T00Z_MSC_GDPS_DewPointDepression_IsbL-0500_LatLon0.15_PT009H.grib2 2026-04-12 04:09 1.0M
20260412T00Z_MSC_GDPS_DewPointDepression_IsbL-0550_LatLon0.15_PT009H.grib2 2026-04-12 04:09 1.0M
20260412T00Z_MSC_GDPS_DewPointDepression_IsbL-0600_LatLon0.15_PT009H.grib2 2026-04-12 04:09 1.0M
20260412T00Z_MSC_GDPS_DewPointDepression_IsbL-0650_LatLon0.15_PT009H.grib2 2026-04-12 04:09 1.0M
20260412T00Z_MSC_GDPS_DewPointDepression_IsbL-0700_LatLon0.15_PT009H.grib2 2026-04-12 04:09 1.1M
20260412T00Z_MSC_GDPS_DewPointDepression_IsbL-0750_LatLon0.15_PT009H.grib2 2026-04-12 04:09 1.1M
20260412T00Z_MSC_GDPS_DewPointDepression_IsbL-0800_LatLon0.15_PT009H.grib2 2026-04-12 04:09 1.2M
20260412T00Z_MSC_GDPS_DewPointDepression_IsbL-0850_LatLon0.15_PT009H.grib2 2026-04-12 04:09 1.2M
20260412T00Z_MSC_GDPS_DewPointDepression_IsbL-0875_LatLon0.15_PT009H.grib2 2026-04-12 04:09 1.1M
20260412T00Z_MSC_GDPS_DewPointDepression_IsbL-0900_LatLon0.15_PT009H.grib2 2026-04-12 04:09 1.1M
20260412T00Z_MSC_GDPS_DewPointDepression_IsbL-0925_LatLon0.15_PT009H.grib2 2026-04-12 04:09 1.0M
20260412T00Z_MSC_GDPS_DewPointDepression_IsbL-0950_LatLon0.15_PT009H.grib2 2026-04-12 04:09 1.0M
20260412T00Z_MSC_GDPS_DewPointDepression_IsbL-0970_LatLon0.15_PT009H.grib2 2026-04-12 04:09 1.0M
20260412T00Z_MSC_GDPS_DewPointDepression_IsbL-0985_LatLon0.15_PT009H.grib2 2026-04-12 04:09 1.0M
20260412T00Z_MSC_GDPS_DewPointDepression_IsbL-1000_LatLon0.15_PT009H.grib2 2026-04-12 04:09 965K
20260412T00Z_MSC_GDPS_DewPointDepression_IsbL-1015_LatLon0.15_PT009H.grib2 2026-04-12 04:09 905K
20260412T00Z_MSC_GDPS_DewPoint_AGL-2m_LatLon0.15_PT009H.grib2 2026-04-12 04:09 609K
20260412T00Z_MSC_GDPS_DownwardLongwaveRadiationFlux-Accum_Sfc_LatLon0.15_PT009H.grib2 2026-04-12 04:09 935K
20260412T00Z_MSC_GDPS_DownwardShortwaveRadiationFlux-Accum_NTAtm_LatLon0.15_PT009H.grib2 2026-04-12 04:09 306K
20260412T00Z_MSC_GDPS_DownwardShortwaveRadiationFlux-Accum_Sfc_LatLon0.15_PT009H.grib2 2026-04-12 04:09 742K
20260412T00Z_MSC_GDPS_FreezingRain-Accum1h_Sfc_LatLon0.15_PT009H.grib2 2026-04-12 04:09 27K
20260412T00Z_MSC_GDPS_FreezingRain-Accum3h_Sfc_LatLon0.15_PT009H.grib2 2026-04-12 04:09 30K
20260412T00Z_MSC_GDPS_FreezingRain-Accum_Sfc_LatLon0.15_PT009H.grib2 2026-04-12 04:09 78K
20260412T00Z_MSC_GDPS_GeopotentialHeight_IsbL-0001_LatLon0.15_PT009H.grib2 2026-04-12 04:09 540K
20260412T00Z_MSC_GDPS_GeopotentialHeight_IsbL-0005_LatLon0.15_PT009H.grib2 2026-04-12 04:09 442K
20260412T00Z_MSC_GDPS_GeopotentialHeight_IsbL-0010_LatLon0.15_PT009H.grib2 2026-04-12 04:09 577K
20260412T00Z_MSC_GDPS_GeopotentialHeight_IsbL-0020_LatLon0.15_PT009H.grib2 2026-04-12 04:09 580K
20260412T00Z_MSC_GDPS_GeopotentialHeight_IsbL-0030_LatLon0.15_PT009H.grib2 2026-04-12 04:09 586K
20260412T00Z_MSC_GDPS_GeopotentialHeight_IsbL-0050_LatLon0.15_PT009H.grib2 2026-04-12 04:09 515K
20260412T00Z_MSC_GDPS_GeopotentialHeight_IsbL-0100_LatLon0.15_PT009H.grib2 2026-04-12 04:09 616K
20260412T00Z_MSC_GDPS_GeopotentialHeight_IsbL-0150_LatLon0.15_PT009H.grib2 2026-04-12 04:09 634K
20260412T00Z_MSC_GDPS_GeopotentialHeight_IsbL-0175_LatLon0.15_PT009H.grib2 2026-04-12 04:09 637K
20260412T00Z_MSC_GDPS_GeopotentialHeight_IsbL-0200_LatLon0.15_PT009H.grib2 2026-04-12 04:09 641K
20260412T00Z_MSC_GDPS_GeopotentialHeight_IsbL-0225_LatLon0.15_PT009H.grib2 2026-04-12 04:09 645K
20260412T00Z_MSC_GDPS_GeopotentialHeight_IsbL-0250_LatLon0.15_PT009H.grib2 2026-04-12 04:09 644K
20260412T00Z_MSC_GDPS_GeopotentialHeight_IsbL-0275_LatLon0.15_PT009H.grib2 2026-04-12 04:09 644K
20260412T00Z_MSC_GDPS_GeopotentialHeight_IsbL-0300_LatLon0.15_PT009H.grib2 2026-04-12 04:09 635K
20260412T00Z_MSC_GDPS_GeopotentialHeight_IsbL-0350_LatLon0.15_PT009H.grib2 2026-04-12 04:09 630K
20260412T00Z_MSC_GDPS_GeopotentialHeight_IsbL-0400_LatLon0.15_PT009H.grib2 2026-04-12 04:09 622K
20260412T00Z_MSC_GDPS_GeopotentialHeight_IsbL-0450_LatLon0.15_PT009H.grib2 2026-04-12 04:09 542K
20260412T00Z_MSC_GDPS_GeopotentialHeight_IsbL-0500_LatLon0.15_PT009H.grib2 2026-04-12 04:09 532K
20260412T00Z_MSC_GDPS_GeopotentialHeight_IsbL-0550_LatLon0.15_PT009H.grib2 2026-04-12 04:09 694K
20260412T00Z_MSC_GDPS_GeopotentialHeight_IsbL-0600_LatLon0.15_PT009H.grib2 2026-04-12 04:09 689K
20260412T00Z_MSC_GDPS_GeopotentialHeight_IsbL-0650_LatLon0.15_PT009H.grib2 2026-04-12 04:09 690K
20260412T00Z_MSC_GDPS_GeopotentialHeight_IsbL-0700_LatLon0.15_PT009H.grib2 2026-04-12 04:09 692K
20260412T00Z_MSC_GDPS_GeopotentialHeight_IsbL-0750_LatLon0.15_PT009H.grib2 2026-04-12 04:09 697K
20260412T00Z_MSC_GDPS_GeopotentialHeight_IsbL-0800_LatLon0.15_PT009H.grib2 2026-04-12 04:09 708K
20260412T00Z_MSC_GDPS_GeopotentialHeight_IsbL-0850_LatLon0.15_PT009H.grib2 2026-04-12 04:09 714K
20260412T00Z_MSC_GDPS_GeopotentialHeight_IsbL-0875_LatLon0.15_PT009H.grib2 2026-04-12 04:09 722K
20260412T00Z_MSC_GDPS_GeopotentialHeight_IsbL-0900_LatLon0.15_PT009H.grib2 2026-04-12 04:09 728K
20260412T00Z_MSC_GDPS_GeopotentialHeight_IsbL-0925_LatLon0.15_PT009H.grib2 2026-04-12 04:09 735K
20260412T00Z_MSC_GDPS_GeopotentialHeight_IsbL-0950_LatLon0.15_PT009H.grib2 2026-04-12 04:09 740K
20260412T00Z_MSC_GDPS_GeopotentialHeight_IsbL-0970_LatLon0.15_PT009H.grib2 2026-04-12 04:09 750K
20260412T00Z_MSC_GDPS_GeopotentialHeight_IsbL-0985_LatLon0.15_PT009H.grib2 2026-04-12 04:09 764K
20260412T00Z_MSC_GDPS_GeopotentialHeight_IsbL-1000_LatLon0.15_PT009H.grib2 2026-04-12 04:09 786K
20260412T00Z_MSC_GDPS_GeopotentialHeight_IsbL-1015_LatLon0.15_PT009H.grib2 2026-04-12 04:09 808K
20260412T00Z_MSC_GDPS_Humidex_Sfc_LatLon0.15_PT009H.grib2 2026-04-12 04:09 5.3M
20260412T00Z_MSC_GDPS_IcePellets-Accum1h_Sfc_LatLon0.15_PT009H.grib2 2026-04-12 04:09 8.5K
20260412T00Z_MSC_GDPS_IcePellets-Accum3h_Sfc_LatLon0.15_PT009H.grib2 2026-04-12 04:09 11K
20260412T00Z_MSC_GDPS_IcePellets-Accum_Sfc_LatLon0.15_PT009H.grib2 2026-04-12 04:09 23K
20260412T00Z_MSC_GDPS_KIndex_Sfc_LatLon0.15_PT009H.grib2 2026-04-12 04:09 6.4M
20260412T00Z_MSC_GDPS_LatentHeatNetFlux_Sfc_LatLon0.15_PT009H.grib2 2026-04-12 04:09 549K
20260412T00Z_MSC_GDPS_LiftedIndex-MU-VT_IsbL-0500_LatLon0.15_PT009H.grib2 2026-04-12 04:09 5.4M
20260412T00Z_MSC_GDPS_NetLongwaveRadiationFlux-Accum_Sfc_LatLon0.15_PT009H.grib2 2026-04-12 04:09 1.2M
20260412T00Z_MSC_GDPS_NetShortwaveRadiationFlux-Accum_Sfc_LatLon0.15_PT009H.grib2 2026-04-12 04:09 714K
20260412T00Z_MSC_GDPS_O3MixingRatio_LatLon0.15_PT009H.grib2 2026-04-12 05:04 2.1M
20260412T00Z_MSC_GDPS_O3_EAtm_LatLon0.15_PT009H.grib2 2026-04-12 05:04 2.1M
20260412T00Z_MSC_GDPS_PlanetaryBoundaryLayerHeight_Sfc_LatLon0.15_PT009H.grib2 2026-04-12 04:09 2.5M
20260412T00Z_MSC_GDPS_Precip-Accum1h_Sfc_LatLon0.15_PT009H.grib2 2026-04-12 04:09 3.4M
20260412T00Z_MSC_GDPS_Precip-Accum3h_Sfc_LatLon0.15_PT009H.grib2 2026-04-12 04:09 3.4M
20260412T00Z_MSC_GDPS_Precip-Accum_Sfc_LatLon0.15_PT009H.grib2 2026-04-12 04:09 3.9M
20260412T00Z_MSC_GDPS_PrecipRate_Sfc_LatLon0.15_PT009H.grib2 2026-04-12 04:09 3.1M
20260412T00Z_MSC_GDPS_PrecipType-Instant_Sfc_LatLon0.15_PT009H.grib2 2026-04-12 04:09 1.5M
20260412T00Z_MSC_GDPS_Pressure_MSL_LatLon0.15_PT009H.grib2 2026-04-12 04:09 720K
20260412T00Z_MSC_GDPS_Pressure_PVU-1.5_LatLon0.15_PT009H.grib2 2026-04-12 04:09 5.8M
20260412T00Z_MSC_GDPS_Pressure_PVU-1_LatLon0.15_PT009H.grib2 2026-04-12 04:09 6.0M
20260412T00Z_MSC_GDPS_Pressure_PVU-2_LatLon0.15_PT009H.grib2 2026-04-12 04:09 5.6M
20260412T00Z_MSC_GDPS_Pressure_Sfc_LatLon0.15_PT009H.grib2 2026-04-12 04:09 1.1M
20260412T00Z_MSC_GDPS_RadiativeTemp_Sfc_LatLon0.15_PT009H.grib2 2026-04-12 04:09 668K
20260412T00Z_MSC_GDPS_Rain-Accum1h_Sfc_LatLon0.15_PT009H.grib2 2026-04-12 04:09 1.7M
20260412T00Z_MSC_GDPS_Rain-Accum3h_Sfc_LatLon0.15_PT009H.grib2 2026-04-12 04:09 1.6M
20260412T00Z_MSC_GDPS_Rain-Accum_Sfc_LatLon0.15_PT009H.grib2 2026-04-12 04:09 2.7M
20260412T00Z_MSC_GDPS_RelativeHumidity_AGL-2m_LatLon0.15_PT009H.grib2 2026-04-12 04:09 1.0M
20260412T00Z_MSC_GDPS_RelativeHumidity_IsbL-0010_LatLon0.15_PT009H.grib2 2026-04-12 04:09 377K
20260412T00Z_MSC_GDPS_RelativeHumidity_IsbL-0020_LatLon0.15_PT009H.grib2 2026-04-12 04:09 405K
20260412T00Z_MSC_GDPS_RelativeHumidity_IsbL-0030_LatLon0.15_PT009H.grib2 2026-04-12 04:09 534K
20260412T00Z_MSC_GDPS_RelativeHumidity_IsbL-0050_LatLon0.15_PT009H.grib2 2026-04-12 04:09 327K
20260412T00Z_MSC_GDPS_RelativeHumidity_IsbL-0100_LatLon0.15_PT009H.grib2 2026-04-12 04:09 496K
20260412T00Z_MSC_GDPS_RelativeHumidity_IsbL-0150_LatLon0.15_PT009H.grib2 2026-04-12 04:09 644K
20260412T00Z_MSC_GDPS_RelativeHumidity_IsbL-0175_LatLon0.15_PT009H.grib2 2026-04-12 04:09 745K
20260412T00Z_MSC_GDPS_RelativeHumidity_IsbL-0200_LatLon0.15_PT009H.grib2 2026-04-12 04:09 663K
20260412T00Z_MSC_GDPS_RelativeHumidity_IsbL-0225_LatLon0.15_PT009H.grib2 2026-04-12 04:09 754K
20260412T00Z_MSC_GDPS_RelativeHumidity_IsbL-0250_LatLon0.15_PT009H.grib2 2026-04-12 04:09 840K
20260412T00Z_MSC_GDPS_RelativeHumidity_IsbL-0275_LatLon0.15_PT009H.grib2 2026-04-12 04:09 871K
20260412T00Z_MSC_GDPS_RelativeHumidity_IsbL-0300_LatLon0.15_PT009H.grib2 2026-04-12 04:09 920K
20260412T00Z_MSC_GDPS_RelativeHumidity_IsbL-0350_LatLon0.15_PT009H.grib2 2026-04-12 04:09 942K
20260412T00Z_MSC_GDPS_RelativeHumidity_IsbL-0400_LatLon0.15_PT009H.grib2 2026-04-12 04:09 965K
20260412T00Z_MSC_GDPS_RelativeHumidity_IsbL-0450_LatLon0.15_PT009H.grib2 2026-04-12 04:09 1.0M
20260412T00Z_MSC_GDPS_RelativeHumidity_IsbL-0500_LatLon0.15_PT009H.grib2 2026-04-12 04:09 1.0M
20260412T00Z_MSC_GDPS_RelativeHumidity_IsbL-0550_LatLon0.15_PT009H.grib2 2026-04-12 04:09 1.1M
20260412T00Z_MSC_GDPS_RelativeHumidity_IsbL-0600_LatLon0.15_PT009H.grib2 2026-04-12 04:09 1.1M
20260412T00Z_MSC_GDPS_RelativeHumidity_IsbL-0650_LatLon0.15_PT009H.grib2 2026-04-12 04:09 1.1M
20260412T00Z_MSC_GDPS_RelativeHumidity_IsbL-0700_LatLon0.15_PT009H.grib2 2026-04-12 04:09 1.1M
20260412T00Z_MSC_GDPS_RelativeHumidity_IsbL-0750_LatLon0.15_PT009H.grib2 2026-04-12 04:09 1.2M
20260412T00Z_MSC_GDPS_RelativeHumidity_IsbL-0800_LatLon0.15_PT009H.grib2 2026-04-12 04:09 1.2M
20260412T00Z_MSC_GDPS_RelativeHumidity_IsbL-0850_LatLon0.15_PT009H.grib2 2026-04-12 04:09 1.3M
20260412T00Z_MSC_GDPS_RelativeHumidity_IsbL-0875_LatLon0.15_PT009H.grib2 2026-04-12 04:09 1.3M
20260412T00Z_MSC_GDPS_RelativeHumidity_IsbL-0900_LatLon0.15_PT009H.grib2 2026-04-12 04:09 1.3M
20260412T00Z_MSC_GDPS_RelativeHumidity_IsbL-0925_LatLon0.15_PT009H.grib2 2026-04-12 04:09 1.2M
20260412T00Z_MSC_GDPS_RelativeHumidity_IsbL-0950_LatLon0.15_PT009H.grib2 2026-04-12 04:09 1.2M
20260412T00Z_MSC_GDPS_RelativeHumidity_IsbL-0970_LatLon0.15_PT009H.grib2 2026-04-12 04:09 1.2M
20260412T00Z_MSC_GDPS_RelativeHumidity_IsbL-0985_LatLon0.15_PT009H.grib2 2026-04-12 04:09 1.1M
20260412T00Z_MSC_GDPS_RelativeHumidity_IsbL-1000_LatLon0.15_PT009H.grib2 2026-04-12 04:09 1.1M
20260412T00Z_MSC_GDPS_RelativeHumidity_IsbL-1015_LatLon0.15_PT009H.grib2 2026-04-12 04:09 1.0M
20260412T00Z_MSC_GDPS_RelativeVorticity_IsbL-0200_LatLon0.15_PT009H.grib2 2026-04-12 04:09 1.2M
20260412T00Z_MSC_GDPS_RelativeVorticity_IsbL-0250_LatLon0.15_PT009H.grib2 2026-04-12 04:09 1.3M
20260412T00Z_MSC_GDPS_RelativeVorticity_IsbL-0500_LatLon0.15_PT009H.grib2 2026-04-12 04:09 1.2M
20260412T00Z_MSC_GDPS_RelativeVorticity_IsbL-0700_LatLon0.15_PT009H.grib2 2026-04-12 04:09 1.3M
20260412T00Z_MSC_GDPS_RelativeVorticity_IsbL-0850_LatLon0.15_PT009H.grib2 2026-04-12 04:09 1.6M
20260412T00Z_MSC_GDPS_Runoff-Accum_Sfc_LatLon0.15_PT009H.grib2 2026-04-12 04:09 76K
20260412T00Z_MSC_GDPS_SensibleHeatNetFlux_Sfc_LatLon0.15_PT009H.grib2 2026-04-12 04:09 486K
20260412T00Z_MSC_GDPS_ShowalterIndex_IsbL-0500_LatLon0.15_PT009H.grib2 2026-04-12 04:09 6.2M
20260412T00Z_MSC_GDPS_Snow-Accum1h_Sfc_LatLon0.15_PT009H.grib2 2026-04-12 04:09 1.0M
20260412T00Z_MSC_GDPS_Snow-Accum3h_Sfc_LatLon0.15_PT009H.grib2 2026-04-12 04:09 1.1M
20260412T00Z_MSC_GDPS_Snow-Accum_Sfc_LatLon0.15_PT009H.grib2 2026-04-12 04:09 1.6M
20260412T00Z_MSC_GDPS_SnowDensity_Sfc_LatLon0.15_PT009H.grib2 2026-04-12 04:09 260K
20260412T00Z_MSC_GDPS_SnowDepth_Sfc_LatLon0.15_PT009H.grib2 2026-04-12 04:09 1.8M
20260412T00Z_MSC_GDPS_SoilTemp_DBS-0to10cm_LatLon0.15_PT009H.grib2 2026-04-12 04:09 491K
20260412T00Z_MSC_GDPS_SoilTemp_Sfc_LatLon0.15_PT009H.grib2 2026-04-12 04:09 586K
20260412T00Z_MSC_GDPS_SoilVolumetricIceContent_Sfc_LatLon0.15_PT009H.grib2 2026-04-12 04:09 230K
20260412T00Z_MSC_GDPS_SoilVolumetricWaterContent_DBS-0to10cm_LatLon0.15_PT009H.grib2 2026-04-12 04:09 550K
20260412T00Z_MSC_GDPS_SoilVolumetricWaterContent_DBS-0to1cm_LatLon0.15_PT009H.grib2 2026-04-12 04:09 649K
20260412T00Z_MSC_GDPS_SpecificHumidity_AGL-120m_LatLon0.15_PT009H.grib2 2026-04-12 04:09 1.1M
20260412T00Z_MSC_GDPS_SpecificHumidity_AGL-2m_LatLon0.15_PT009H.grib2 2026-04-12 04:09 1.2M
20260412T00Z_MSC_GDPS_SpecificHumidity_AGL-40m_LatLon0.15_PT009H.grib2 2026-04-12 04:09 1.1M
20260412T00Z_MSC_GDPS_SpecificHumidity_AGL-80m_LatLon0.15_PT009H.grib2 2026-04-12 04:09 1.1M
20260412T00Z_MSC_GDPS_SpecificHumidity_IsbL-0001_LatLon0.15_PT009H.grib2 2026-04-12 04:09 1.3M
20260412T00Z_MSC_GDPS_SpecificHumidity_IsbL-0005_LatLon0.15_PT009H.grib2 2026-04-12 04:09 1.2M
20260412T00Z_MSC_GDPS_SpecificHumidity_IsbL-0010_LatLon0.15_PT009H.grib2 2026-04-12 04:09 1.4M
20260412T00Z_MSC_GDPS_SpecificHumidity_IsbL-0020_LatLon0.15_PT009H.grib2 2026-04-12 04:09 1.4M
20260412T00Z_MSC_GDPS_SpecificHumidity_IsbL-0030_LatLon0.15_PT009H.grib2 2026-04-12 04:09 1.4M
20260412T00Z_MSC_GDPS_SpecificHumidity_IsbL-0050_LatLon0.15_PT009H.grib2 2026-04-12 04:09 1.4M
20260412T00Z_MSC_GDPS_SpecificHumidity_IsbL-0100_LatLon0.15_PT009H.grib2 2026-04-12 04:09 1.3M
20260412T00Z_MSC_GDPS_SpecificHumidity_IsbL-0150_LatLon0.15_PT009H.grib2 2026-04-12 04:09 1.2M
20260412T00Z_MSC_GDPS_SpecificHumidity_IsbL-0175_LatLon0.15_PT009H.grib2 2026-04-12 04:09 1.3M
20260412T00Z_MSC_GDPS_SpecificHumidity_IsbL-0200_LatLon0.15_PT009H.grib2 2026-04-12 04:09 1.0M
20260412T00Z_MSC_GDPS_SpecificHumidity_IsbL-0225_LatLon0.15_PT009H.grib2 2026-04-12 04:09 1.2M
20260412T00Z_MSC_GDPS_SpecificHumidity_IsbL-0250_LatLon0.15_PT009H.grib2 2026-04-12 04:09 1.2M
20260412T00Z_MSC_GDPS_SpecificHumidity_IsbL-0275_LatLon0.15_PT009H.grib2 2026-04-12 04:09 1.1M
20260412T00Z_MSC_GDPS_SpecificHumidity_IsbL-0300_LatLon0.15_PT009H.grib2 2026-04-12 04:09 1.2M
20260412T00Z_MSC_GDPS_SpecificHumidity_IsbL-0350_LatLon0.15_PT009H.grib2 2026-04-12 04:09 1.2M
20260412T00Z_MSC_GDPS_SpecificHumidity_IsbL-0400_LatLon0.15_PT009H.grib2 2026-04-12 04:09 1.4M
20260412T00Z_MSC_GDPS_SpecificHumidity_IsbL-0450_LatLon0.15_PT009H.grib2 2026-04-12 04:09 1.3M
20260412T00Z_MSC_GDPS_SpecificHumidity_IsbL-0500_LatLon0.15_PT009H.grib2 2026-04-12 04:09 1.4M
20260412T00Z_MSC_GDPS_SpecificHumidity_IsbL-0550_LatLon0.15_PT009H.grib2 2026-04-12 04:09 1.6M
20260412T00Z_MSC_GDPS_SpecificHumidity_IsbL-0600_LatLon0.15_PT009H.grib2 2026-04-12 04:09 1.4M
20260412T00Z_MSC_GDPS_SpecificHumidity_IsbL-0650_LatLon0.15_PT009H.grib2 2026-04-12 04:09 1.5M
20260412T00Z_MSC_GDPS_SpecificHumidity_IsbL-0700_LatLon0.15_PT009H.grib2 2026-04-12 04:09 1.6M
20260412T00Z_MSC_GDPS_SpecificHumidity_IsbL-0750_LatLon0.15_PT009H.grib2 2026-04-12 04:09 1.7M
20260412T00Z_MSC_GDPS_SpecificHumidity_IsbL-0800_LatLon0.15_PT009H.grib2 2026-04-12 04:09 1.8M
20260412T00Z_MSC_GDPS_SpecificHumidity_IsbL-0850_LatLon0.15_PT009H.grib2 2026-04-12 04:09 1.9M
20260412T00Z_MSC_GDPS_SpecificHumidity_IsbL-0875_LatLon0.15_PT009H.grib2 2026-04-12 04:09 1.9M
20260412T00Z_MSC_GDPS_SpecificHumidity_IsbL-0900_LatLon0.15_PT009H.grib2 2026-04-12 04:09 1.9M
20260412T00Z_MSC_GDPS_SpecificHumidity_IsbL-0925_LatLon0.15_PT009H.grib2 2026-04-12 04:09 1.6M
20260412T00Z_MSC_GDPS_SpecificHumidity_IsbL-0950_LatLon0.15_PT009H.grib2 2026-04-12 04:09 1.5M
20260412T00Z_MSC_GDPS_SpecificHumidity_IsbL-0970_LatLon0.15_PT009H.grib2 2026-04-12 04:09 1.5M
20260412T00Z_MSC_GDPS_SpecificHumidity_IsbL-0985_LatLon0.15_PT009H.grib2 2026-04-12 04:09 1.5M
20260412T00Z_MSC_GDPS_SpecificHumidity_IsbL-1000_LatLon0.15_PT009H.grib2 2026-04-12 04:09 1.5M
20260412T00Z_MSC_GDPS_SpecificHumidity_IsbL-1015_LatLon0.15_PT009H.grib2 2026-04-12 04:09 1.4M
20260412T00Z_MSC_GDPS_SpecificHumidity_Sfc_LatLon0.15_PT009H.grib2 2026-04-12 04:09 661K
20260412T00Z_MSC_GDPS_Thickness_IsbL-0850to0700_LatLon0.15_PT009H.grib2 2026-04-12 04:09 472K
20260412T00Z_MSC_GDPS_Thickness_IsbL-1000to0500_LatLon0.15_PT009H.grib2 2026-04-12 04:09 335K
20260412T00Z_MSC_GDPS_Thickness_IsbL-1000to0850_LatLon0.15_PT009H.grib2 2026-04-12 04:09 486K
20260412T00Z_MSC_GDPS_TotalCloudCover_Sfc_LatLon0.15_PT009H.grib2 2026-04-12 04:09 822K
20260412T00Z_MSC_GDPS_TotalTotalsIndex_Sfc_LatLon0.15_PT009H.grib2 2026-04-12 04:09 6.2M
20260412T00Z_MSC_GDPS_UVIndex-ClearSky_Sfc_LatLon0.15_PT009H.grib2 2026-04-12 05:04 1.0M
20260412T00Z_MSC_GDPS_UVIndex_Sfc_LatLon0.15_PT009H.grib2 2026-04-12 05:04 1.4M
20260412T00Z_MSC_GDPS_UpwardLongwaveRadiationFlux_NTAtm_LatLon0.15_PT009H.grib2 2026-04-12 04:09 821K
20260412T00Z_MSC_GDPS_VerticalVelocity_IsbL-0200_LatLon0.15_PT009H.grib2 2026-04-12 04:09 1.0M
20260412T00Z_MSC_GDPS_VerticalVelocity_IsbL-0250_LatLon0.15_PT009H.grib2 2026-04-12 04:09 1.1M
20260412T00Z_MSC_GDPS_VerticalVelocity_IsbL-0500_LatLon0.15_PT009H.grib2 2026-04-12 04:09 1.0M
20260412T00Z_MSC_GDPS_VerticalVelocity_IsbL-0600_LatLon0.15_PT009H.grib2 2026-04-12 04:09 1.1M
20260412T00Z_MSC_GDPS_VerticalVelocity_IsbL-0700_LatLon0.15_PT009H.grib2 2026-04-12 04:09 1.1M
20260412T00Z_MSC_GDPS_VerticalVelocity_IsbL-0850_LatLon0.15_PT009H.grib2 2026-04-12 04:09 1.6M
20260412T00Z_MSC_GDPS_WindChill_Sfc_LatLon0.15_PT009H.grib2 2026-04-12 04:09 5.3M
20260412T00Z_MSC_GDPS_WindDir_AGL-10m_LatLon0.15_PT009H.grib2 2026-04-12 04:09 1.3M
20260412T00Z_MSC_GDPS_WindDir_AGL-120m_LatLon0.15_PT009H.grib2 2026-04-12 04:09 1.3M
20260412T00Z_MSC_GDPS_WindDir_AGL-40m_LatLon0.15_PT009H.grib2 2026-04-12 04:09 1.4M
20260412T00Z_MSC_GDPS_WindDir_AGL-80m_LatLon0.15_PT009H.grib2 2026-04-12 04:09 1.3M
20260412T00Z_MSC_GDPS_WindDir_IsbL-0001_LatLon0.15_PT009H.grib2 2026-04-12 04:09 634K
20260412T00Z_MSC_GDPS_WindDir_IsbL-0005_LatLon0.15_PT009H.grib2 2026-04-12 04:09 781K
20260412T00Z_MSC_GDPS_WindDir_IsbL-0010_LatLon0.15_PT009H.grib2 2026-04-12 04:09 877K
20260412T00Z_MSC_GDPS_WindDir_IsbL-0020_LatLon0.15_PT009H.grib2 2026-04-12 04:09 933K
20260412T00Z_MSC_GDPS_WindDir_IsbL-0030_LatLon0.15_PT009H.grib2 2026-04-12 04:09 900K
20260412T00Z_MSC_GDPS_WindDir_IsbL-0050_LatLon0.15_PT009H.grib2 2026-04-12 04:09 951K
20260412T00Z_MSC_GDPS_WindDir_IsbL-0100_LatLon0.15_PT009H.grib2 2026-04-12 04:09 1.0M
20260412T00Z_MSC_GDPS_WindDir_IsbL-0150_LatLon0.15_PT009H.grib2 2026-04-12 04:09 1.0M
20260412T00Z_MSC_GDPS_WindDir_IsbL-0175_LatLon0.15_PT009H.grib2 2026-04-12 04:09 1.0M
20260412T00Z_MSC_GDPS_WindDir_IsbL-0200_LatLon0.15_PT009H.grib2 2026-04-12 04:09 1.1M
20260412T00Z_MSC_GDPS_WindDir_IsbL-0225_LatLon0.15_PT009H.grib2 2026-04-12 04:09 1.1M
20260412T00Z_MSC_GDPS_WindDir_IsbL-0250_LatLon0.15_PT009H.grib2 2026-04-12 04:09 1.1M
20260412T00Z_MSC_GDPS_WindDir_IsbL-0275_LatLon0.15_PT009H.grib2 2026-04-12 04:09 1.2M
20260412T00Z_MSC_GDPS_WindDir_IsbL-0300_LatLon0.15_PT009H.grib2 2026-04-12 04:09 1.2M
20260412T00Z_MSC_GDPS_WindDir_IsbL-0350_LatLon0.15_PT009H.grib2 2026-04-12 04:09 1.2M
20260412T00Z_MSC_GDPS_WindDir_IsbL-0400_LatLon0.15_PT009H.grib2 2026-04-12 04:09 1.3M
20260412T00Z_MSC_GDPS_WindDir_IsbL-0450_LatLon0.15_PT009H.grib2 2026-04-12 04:09 1.3M
20260412T00Z_MSC_GDPS_WindDir_IsbL-0500_LatLon0.15_PT009H.grib2 2026-04-12 04:09 1.4M
20260412T00Z_MSC_GDPS_WindDir_IsbL-0550_LatLon0.15_PT009H.grib2 2026-04-12 04:09 1.4M
20260412T00Z_MSC_GDPS_WindDir_IsbL-0600_LatLon0.15_PT009H.grib2 2026-04-12 04:09 1.4M
20260412T00Z_MSC_GDPS_WindDir_IsbL-0650_LatLon0.15_PT009H.grib2 2026-04-12 04:09 1.5M
20260412T00Z_MSC_GDPS_WindDir_IsbL-0700_LatLon0.15_PT009H.grib2 2026-04-12 04:09 1.6M
20260412T00Z_MSC_GDPS_WindDir_IsbL-0750_LatLon0.15_PT009H.grib2 2026-04-12 04:09 1.7M
20260412T00Z_MSC_GDPS_WindDir_IsbL-0800_LatLon0.15_PT009H.grib2 2026-04-12 04:09 1.8M
20260412T00Z_MSC_GDPS_WindDir_IsbL-0850_LatLon0.15_PT009H.grib2 2026-04-12 04:09 1.9M
20260412T00Z_MSC_GDPS_WindDir_IsbL-0875_LatLon0.15_PT009H.grib2 2026-04-12 04:09 1.9M
20260412T00Z_MSC_GDPS_WindDir_IsbL-0900_LatLon0.15_PT009H.grib2 2026-04-12 04:09 1.9M
20260412T00Z_MSC_GDPS_WindDir_IsbL-0925_LatLon0.15_PT009H.grib2 2026-04-12 04:09 2.0M
20260412T00Z_MSC_GDPS_WindDir_IsbL-0950_LatLon0.15_PT009H.grib2 2026-04-12 04:09 1.9M
20260412T00Z_MSC_GDPS_WindDir_IsbL-0970_LatLon0.15_PT009H.grib2 2026-04-12 04:09 2.0M
20260412T00Z_MSC_GDPS_WindDir_IsbL-0985_LatLon0.15_PT009H.grib2 2026-04-12 04:09 2.0M
20260412T00Z_MSC_GDPS_WindDir_IsbL-1000_LatLon0.15_PT009H.grib2 2026-04-12 04:09 2.0M
20260412T00Z_MSC_GDPS_WindDir_IsbL-1015_LatLon0.15_PT009H.grib2 2026-04-12 04:09 2.0M
20260412T00Z_MSC_GDPS_WindGust-Max_AGL-10m_LatLon0.15_PT009H.grib2 2026-04-12 04:09 2.2M
20260412T00Z_MSC_GDPS_WindGust-Min_AGL-10m_LatLon0.15_PT009H.grib2 2026-04-12 04:09 2.2M
20260412T00Z_MSC_GDPS_WindGust_AGL-10m_LatLon0.15_PT009H.grib2 2026-04-12 04:09 2.2M
20260412T00Z_MSC_GDPS_WindSpeed_AGL-10m_LatLon0.15_PT009H.grib2 2026-04-12 04:09 1.1M
20260412T00Z_MSC_GDPS_WindSpeed_AGL-120m_LatLon0.15_PT009H.grib2 2026-04-12 04:09 1.2M
20260412T00Z_MSC_GDPS_WindSpeed_AGL-40m_LatLon0.15_PT009H.grib2 2026-04-12 04:09 1.2M
20260412T00Z_MSC_GDPS_WindSpeed_AGL-80m_LatLon0.15_PT009H.grib2 2026-04-12 04:09 1.2M
20260412T00Z_MSC_GDPS_WindSpeed_IsbL-0001_LatLon0.15_PT009H.grib2 2026-04-12 04:09 635K
20260412T00Z_MSC_GDPS_WindSpeed_IsbL-0005_LatLon0.15_PT009H.grib2 2026-04-12 04:09 612K
20260412T00Z_MSC_GDPS_WindSpeed_IsbL-0010_LatLon0.15_PT009H.grib2 2026-04-12 04:09 819K
20260412T00Z_MSC_GDPS_WindSpeed_IsbL-0020_LatLon0.15_PT009H.grib2 2026-04-12 04:09 882K
20260412T00Z_MSC_GDPS_WindSpeed_IsbL-0030_LatLon0.15_PT009H.grib2 2026-04-12 04:09 872K
20260412T00Z_MSC_GDPS_WindSpeed_IsbL-0050_LatLon0.15_PT009H.grib2 2026-04-12 04:09 1.0M
20260412T00Z_MSC_GDPS_WindSpeed_IsbL-0100_LatLon0.15_PT009H.grib2 2026-04-12 04:09 1.1M
20260412T00Z_MSC_GDPS_WindSpeed_IsbL-0150_LatLon0.15_PT009H.grib2 2026-04-12 04:09 1.0M
20260412T00Z_MSC_GDPS_WindSpeed_IsbL-0175_LatLon0.15_PT009H.grib2 2026-04-12 04:09 1.0M
20260412T00Z_MSC_GDPS_WindSpeed_IsbL-0200_LatLon0.15_PT009H.grib2 2026-04-12 04:09 850K
20260412T00Z_MSC_GDPS_WindSpeed_IsbL-0225_LatLon0.15_PT009H.grib2 2026-04-12 04:09 865K
20260412T00Z_MSC_GDPS_WindSpeed_IsbL-0250_LatLon0.15_PT009H.grib2 2026-04-12 04:09 1.1M
20260412T00Z_MSC_GDPS_WindSpeed_IsbL-0275_LatLon0.15_PT009H.grib2 2026-04-12 04:09 1.1M
20260412T00Z_MSC_GDPS_WindSpeed_IsbL-0300_LatLon0.15_PT009H.grib2 2026-04-12 04:09 1.1M
20260412T00Z_MSC_GDPS_WindSpeed_IsbL-0350_LatLon0.15_PT009H.grib2 2026-04-12 04:09 1.1M
20260412T00Z_MSC_GDPS_WindSpeed_IsbL-0400_LatLon0.15_PT009H.grib2 2026-04-12 04:09 1.1M
20260412T00Z_MSC_GDPS_WindSpeed_IsbL-0450_LatLon0.15_PT009H.grib2 2026-04-12 04:09 1.1M
20260412T00Z_MSC_GDPS_WindSpeed_IsbL-0500_LatLon0.15_PT009H.grib2 2026-04-12 04:09 1.1M
20260412T00Z_MSC_GDPS_WindSpeed_IsbL-0550_LatLon0.15_PT009H.grib2 2026-04-12 04:09 1.1M
20260412T00Z_MSC_GDPS_WindSpeed_IsbL-0600_LatLon0.15_PT009H.grib2 2026-04-12 04:09 1.1M
20260412T00Z_MSC_GDPS_WindSpeed_IsbL-0650_LatLon0.15_PT009H.grib2 2026-04-12 04:09 1.4M
20260412T00Z_MSC_GDPS_WindSpeed_IsbL-0700_LatLon0.15_PT009H.grib2 2026-04-12 04:09 1.5M
20260412T00Z_MSC_GDPS_WindSpeed_IsbL-0750_LatLon0.15_PT009H.grib2 2026-04-12 04:09 1.6M
20260412T00Z_MSC_GDPS_WindSpeed_IsbL-0800_LatLon0.15_PT009H.grib2 2026-04-12 04:09 1.8M
20260412T00Z_MSC_GDPS_WindSpeed_IsbL-0850_LatLon0.15_PT009H.grib2 2026-04-12 04:09 1.7M
20260412T00Z_MSC_GDPS_WindSpeed_IsbL-0875_LatLon0.15_PT009H.grib2 2026-04-12 04:09 1.8M
20260412T00Z_MSC_GDPS_WindSpeed_IsbL-0900_LatLon0.15_PT009H.grib2 2026-04-12 04:09 1.8M
20260412T00Z_MSC_GDPS_WindSpeed_IsbL-0925_LatLon0.15_PT009H.grib2 2026-04-12 04:09 1.8M
20260412T00Z_MSC_GDPS_WindSpeed_IsbL-0950_LatLon0.15_PT009H.grib2 2026-04-12 04:09 1.9M
20260412T00Z_MSC_GDPS_WindSpeed_IsbL-0970_LatLon0.15_PT009H.grib2 2026-04-12 04:09 1.9M
20260412T00Z_MSC_GDPS_WindSpeed_IsbL-0985_LatLon0.15_PT009H.grib2 2026-04-12 04:09 1.8M
20260412T00Z_MSC_GDPS_WindSpeed_IsbL-1000_LatLon0.15_PT009H.grib2 2026-04-12 04:09 1.8M
20260412T00Z_MSC_GDPS_WindSpeed_IsbL-1015_LatLon0.15_PT009H.grib2 2026-04-12 04:09 1.8M
20260412T00Z_MSC_GDPS_WindU_AGL-10m_LatLon0.15_PT009H.grib2 2026-04-12 04:09 1.3M
20260412T00Z_MSC_GDPS_WindU_AGL-120m_LatLon0.15_PT009H.grib2 2026-04-12 04:09 1.0M
20260412T00Z_MSC_GDPS_WindU_AGL-40m_LatLon0.15_PT009H.grib2 2026-04-12 04:09 957K
20260412T00Z_MSC_GDPS_WindU_AGL-80m_LatLon0.15_PT009H.grib2 2026-04-12 04:09 1.0M
20260412T00Z_MSC_GDPS_WindU_IsbL-0001_LatLon0.15_PT009H.grib2 2026-04-12 04:09 498K
20260412T00Z_MSC_GDPS_WindU_IsbL-0005_LatLon0.15_PT009H.grib2 2026-04-12 04:09 693K
20260412T00Z_MSC_GDPS_WindU_IsbL-0010_LatLon0.15_PT009H.grib2 2026-04-12 04:09 712K
20260412T00Z_MSC_GDPS_WindU_IsbL-0020_LatLon0.15_PT009H.grib2 2026-04-12 04:09 751K
20260412T00Z_MSC_GDPS_WindU_IsbL-0030_LatLon0.15_PT009H.grib2 2026-04-12 04:09 746K
20260412T00Z_MSC_GDPS_WindU_IsbL-0050_LatLon0.15_PT009H.grib2 2026-04-12 04:09 712K
20260412T00Z_MSC_GDPS_WindU_IsbL-0100_LatLon0.15_PT009H.grib2 2026-04-12 04:09 929K
20260412T00Z_MSC_GDPS_WindU_IsbL-0150_LatLon0.15_PT009H.grib2 2026-04-12 04:09 1.0M
20260412T00Z_MSC_GDPS_WindU_IsbL-0175_LatLon0.15_PT009H.grib2 2026-04-12 04:09 814K
20260412T00Z_MSC_GDPS_WindU_IsbL-0200_LatLon0.15_PT009H.grib2 2026-04-12 04:09 845K
20260412T00Z_MSC_GDPS_WindU_IsbL-0225_LatLon0.15_PT009H.grib2 2026-04-12 04:09 915K
20260412T00Z_MSC_GDPS_WindU_IsbL-0250_LatLon0.15_PT009H.grib2 2026-04-12 04:09 918K
20260412T00Z_MSC_GDPS_WindU_IsbL-0275_LatLon0.15_PT009H.grib2 2026-04-12 04:09 887K
20260412T00Z_MSC_GDPS_WindU_IsbL-0300_LatLon0.15_PT009H.grib2 2026-04-12 04:09 879K
20260412T00Z_MSC_GDPS_WindU_IsbL-0350_LatLon0.15_PT009H.grib2 2026-04-12 04:09 897K
20260412T00Z_MSC_GDPS_WindU_IsbL-0400_LatLon0.15_PT009H.grib2 2026-04-12 04:09 897K
20260412T00Z_MSC_GDPS_WindU_IsbL-0450_LatLon0.15_PT009H.grib2 2026-04-12 04:09 899K
20260412T00Z_MSC_GDPS_WindU_IsbL-0500_LatLon0.15_PT009H.grib2 2026-04-12 04:09 1.1M
20260412T00Z_MSC_GDPS_WindU_IsbL-0550_LatLon0.15_PT009H.grib2 2026-04-12 04:09 1.1M
20260412T00Z_MSC_GDPS_WindU_IsbL-0600_LatLon0.15_PT009H.grib2 2026-04-12 04:09 1.1M
20260412T00Z_MSC_GDPS_WindU_IsbL-0650_LatLon0.15_PT009H.grib2 2026-04-12 04:09 1.2M
20260412T00Z_MSC_GDPS_WindU_IsbL-0700_LatLon0.15_PT009H.grib2 2026-04-12 04:09 1.2M
20260412T00Z_MSC_GDPS_WindU_IsbL-0750_LatLon0.15_PT009H.grib2 2026-04-12 04:09 1.3M
20260412T00Z_MSC_GDPS_WindU_IsbL-0800_LatLon0.15_PT009H.grib2 2026-04-12 04:09 1.4M
20260412T00Z_MSC_GDPS_WindU_IsbL-0850_LatLon0.15_PT009H.grib2 2026-04-12 04:09 1.4M
20260412T00Z_MSC_GDPS_WindU_IsbL-0875_LatLon0.15_PT009H.grib2 2026-04-12 04:09 1.4M
20260412T00Z_MSC_GDPS_WindU_IsbL-0900_LatLon0.15_PT009H.grib2 2026-04-12 04:09 1.5M
20260412T00Z_MSC_GDPS_WindU_IsbL-0925_LatLon0.15_PT009H.grib2 2026-04-12 04:09 1.4M
20260412T00Z_MSC_GDPS_WindU_IsbL-0950_LatLon0.15_PT009H.grib2 2026-04-12 04:09 1.4M
20260412T00Z_MSC_GDPS_WindU_IsbL-0970_LatLon0.15_PT009H.grib2 2026-04-12 04:09 1.4M
20260412T00Z_MSC_GDPS_WindU_IsbL-0985_LatLon0.15_PT009H.grib2 2026-04-12 04:09 1.4M
20260412T00Z_MSC_GDPS_WindU_IsbL-1000_LatLon0.15_PT009H.grib2 2026-04-12 04:09 1.4M
20260412T00Z_MSC_GDPS_WindU_IsbL-1015_LatLon0.15_PT009H.grib2 2026-04-12 04:09 1.3M
20260412T00Z_MSC_GDPS_WindV_AGL-10m_LatLon0.15_PT009H.grib2 2026-04-12 04:09 1.5M
20260412T00Z_MSC_GDPS_WindV_AGL-120m_LatLon0.15_PT009H.grib2 2026-04-12 04:09 959K
20260412T00Z_MSC_GDPS_WindV_AGL-40m_LatLon0.15_PT009H.grib2 2026-04-12 04:09 955K
20260412T00Z_MSC_GDPS_WindV_AGL-80m_LatLon0.15_PT009H.grib2 2026-04-12 04:09 960K
20260412T00Z_MSC_GDPS_WindV_IsbL-0001_LatLon0.15_PT009H.grib2 2026-04-12 04:09 547K
20260412T00Z_MSC_GDPS_WindV_IsbL-0005_LatLon0.15_PT009H.grib2 2026-04-12 04:09 780K
20260412T00Z_MSC_GDPS_WindV_IsbL-0010_LatLon0.15_PT009H.grib2 2026-04-12 04:09 889K
20260412T00Z_MSC_GDPS_WindV_IsbL-0020_LatLon0.15_PT009H.grib2 2026-04-12 04:09 873K
20260412T00Z_MSC_GDPS_WindV_IsbL-0030_LatLon0.15_PT009H.grib2 2026-04-12 04:09 865K
20260412T00Z_MSC_GDPS_WindV_IsbL-0050_LatLon0.15_PT009H.grib2 2026-04-12 04:09 915K
20260412T00Z_MSC_GDPS_WindV_IsbL-0100_LatLon0.15_PT009H.grib2 2026-04-12 04:09 1.1M
20260412T00Z_MSC_GDPS_WindV_IsbL-0150_LatLon0.15_PT009H.grib2 2026-04-12 04:09 1.0M
20260412T00Z_MSC_GDPS_WindV_IsbL-0175_LatLon0.15_PT009H.grib2 2026-04-12 04:09 814K
20260412T00Z_MSC_GDPS_WindV_IsbL-0200_LatLon0.15_PT009H.grib2 2026-04-12 04:09 903K
20260412T00Z_MSC_GDPS_WindV_IsbL-0225_LatLon0.15_PT009H.grib2 2026-04-12 04:09 914K
20260412T00Z_MSC_GDPS_WindV_IsbL-0250_LatLon0.15_PT009H.grib2 2026-04-12 04:09 917K
20260412T00Z_MSC_GDPS_WindV_IsbL-0275_LatLon0.15_PT009H.grib2 2026-04-12 04:09 942K
20260412T00Z_MSC_GDPS_WindV_IsbL-0300_LatLon0.15_PT009H.grib2 2026-04-12 04:09 932K
20260412T00Z_MSC_GDPS_WindV_IsbL-0350_LatLon0.15_PT009H.grib2 2026-04-12 04:09 890K
20260412T00Z_MSC_GDPS_WindV_IsbL-0400_LatLon0.15_PT009H.grib2 2026-04-12 04:09 892K
20260412T00Z_MSC_GDPS_WindV_IsbL-0450_LatLon0.15_PT009H.grib2 2026-04-12 04:09 1.1M
20260412T00Z_MSC_GDPS_WindV_IsbL-0500_LatLon0.15_PT009H.grib2 2026-04-12 04:09 1.1M
20260412T00Z_MSC_GDPS_WindV_IsbL-0550_LatLon0.15_PT009H.grib2 2026-04-12 04:09 1.1M
20260412T00Z_MSC_GDPS_WindV_IsbL-0600_LatLon0.15_PT009H.grib2 2026-04-12 04:09 1.1M
20260412T00Z_MSC_GDPS_WindV_IsbL-0650_LatLon0.15_PT009H.grib2 2026-04-12 04:09 1.2M
20260412T00Z_MSC_GDPS_WindV_IsbL-0700_LatLon0.15_PT009H.grib2 2026-04-12 04:09 1.2M
20260412T00Z_MSC_GDPS_WindV_IsbL-0750_LatLon0.15_PT009H.grib2 2026-04-12 04:09 1.3M
20260412T00Z_MSC_GDPS_WindV_IsbL-0800_LatLon0.15_PT009H.grib2 2026-04-12 04:09 1.3M
20260412T00Z_MSC_GDPS_WindV_IsbL-0850_LatLon0.15_PT009H.grib2 2026-04-12 04:09 1.4M
20260412T00Z_MSC_GDPS_WindV_IsbL-0875_LatLon0.15_PT009H.grib2 2026-04-12 04:09 1.4M
20260412T00Z_MSC_GDPS_WindV_IsbL-0900_LatLon0.15_PT009H.grib2 2026-04-12 04:09 1.4M
20260412T00Z_MSC_GDPS_WindV_IsbL-0925_LatLon0.15_PT009H.grib2 2026-04-12 04:09 1.4M
20260412T00Z_MSC_GDPS_WindV_IsbL-0950_LatLon0.15_PT009H.grib2 2026-04-12 04:09 1.4M
20260412T00Z_MSC_GDPS_WindV_IsbL-0970_LatLon0.15_PT009H.grib2 2026-04-12 04:09 1.4M
20260412T00Z_MSC_GDPS_WindV_IsbL-0985_LatLon0.15_PT009H.grib2 2026-04-12 04:09 1.4M
20260412T00Z_MSC_GDPS_WindV_IsbL-1000_LatLon0.15_PT009H.grib2 2026-04-12 04:09 1.7M
20260412T00Z_MSC_GDPS_WindV_IsbL-1015_LatLon0.15_PT009H.grib2 2026-04-12 04:09 1.6M